Location: Champignolles
(47.0543°N, 4.5663°E)
Time: 13:03:50
(UTC+00:00)

X-37B - Pass Details

Date: 30 November 2020
Orbit: 383 x 391 km, 45.1° (Epoch: 22 January)

Event Time Altitude Azimuth Distance (km) Brightness Sun altitude
Rises 18:17:45 0° 254° (WSW) 2,259 5.8 -23.6°
Reaches altitude 10° 18:19:50 10° 249° (WSW) 1,407 4.4 -24.0°
Enters shadow 18:21:35 29° 236° (SW) 749 2.5 -24.3°
